Naples Municipal Airport
KAPF : now visible

Airfield :











YOU CAN JOIN US ON...

 
LOGIN :

Register | Disclaimer

   EN    FR    IT 

 









Legend :    VFR   Marginal VFR   IFR   Intensive IFR   Very Intensive IFR
Visi :
Ceiling :
>= 8 km
>= 3000ft
5 to 8 km
1000 to 3000 ft
1500m to 5 km
500 to 1000 ft
800 to 1500m
200 to 500 ft
< 800m
< 200 ft
Symbols :   Thunderstorms  Fog  Heavy snow  Heavy precipitations  Wind > 20 kt






- Airport Elevation : 8 ft


KAPF - Naples Municipal

CURRENT METAR :
  • 042253Z 26008KT 10SM CLR 31/24 A2990 RMK AO2 SLP124 T03110239 $

EXPIRED METARs :
  • 042153Z 26011KT 10SM FEW030 32/24 A2990 RMK AO2 SLP124 T03170239 $
  • 042053Z 25012KT 10SM CLR 32/25 A2992 RMK AO2 SLP129 T03220250 58016 $

TAF KAPF
Valid from the 04 at 21:00 until the 05 at 18:00 UTC


042058Z 0421/0518 27008KT P6SM SCT035 SCT050 BKN250
FM050100 VRB04KT P6SM SCT040 SCT250
KZMA FIR / North America



MET'MAP, your aeronautical weather chart ! - Copyright ORBIFLY December 2007 - Disclaimer

ORBIFLY MET'MAP TEAM :

Programming & Development : Alexandra Zaïnal
Concept & original design : Baudouin d'Aumeries
Assistance for programming : Marc-Olivier Méhu
Technical & hardware support : Manuel Goepfert

Contact : metmap@orbifly.com




SOURCES & CREDITS :

   NOAA       Earth
Advisory